User: anonymous   Login
Location: Fort Wayne
(41.1310°N, 85.1290°W)
Time: 17:36:20
(UTC-04:00)
Language:

Tiros 1 despin weight - Orbit

View from above orbital plane
View from above orbital plane
View from above satellite
View from above satellite

Ground track
Ground track

The orbit data is extracted from the following two-line orbital elements,

1 00115U 60002D   16242.05107993  .00000073  00000-0  36143-4 0  9995
2 00115  48.1666 107.3792 0035196 252.8741 106.8315 14.82855232  6866
Epoch (UTC): 29 August 2016 01:13:33
Eccentricity: 0.0035196
inclination: 48.1666°
perigee height: 595 km
apogee height: 645 km
right ascension of ascending node: 107.3792°
argument of perigee: 252.8741°
revolutions per day: 14.82855232
mean anomaly at epoch: 106.8315°
orbit number at epoch: 686

The dashed part of the orbit path shows where the satellite is in the earth's shadow,  

DLR